This is the latest recevied weather packets stored in our database for station/object VR2R-13. If no packets are shown the sender has not sent any weather packets the latest 1 day(s).
| Time | Temp. | Humidity | Pressure | Rain* | Wind** | Luminosity | Snow |
|---|---|---|---|---|---|---|---|
| 1778043231 | 17.78° C | 98% | 914.7 hPa | 0 mm | 1.34 m/s, 90° | - | - |
| 1778043170 | 17.78° C | 98% | 914.7 hPa | 0 mm | 0.89 m/s, 72° | - | - |
| 1778042871 | 17.78° C | 98% | 914.8 hPa | 0 mm | 0.89 m/s, 145° | - | - |
| 1778042511 | 17.78° C | 98% | 914.7 hPa | 0 mm | 1.79 m/s, 68° | - | - |
| 1778042270 | 17.78° C | 98% | 914.8 hPa | 0 mm | 1.79 m/s, 70° | - | - |
| 1778042151 | 17.78° C | 98% | 914.8 hPa | 0 mm | 2.24 m/s, 68° | - | - |
| 1778041969 | 17.22° C | 98% | 914.8 hPa | 0 mm | 2.24 m/s, 90° | - | - |
| 1778041791 | 17.22° C | 98% | 914.8 hPa | 0 mm | 2.68 m/s, 82° | - | - |
| 1778041670 | 17.22° C | 98% | 914.8 hPa | 0 mm | 2.68 m/s, 68° | - | - |
| 1778041431 | 17.78° C | 98% | 914.8 hPa | 0 mm | 0.89 m/s, 88° | - | - |
| 1778041369 | 17.78° C | 98% | 914.8 hPa | 0 mm | 2.24 m/s, 79° | - | - |
| 1778041072 | 17.78° C | 98% | 914.8 hPa | 0 mm | 2.68 m/s, 59° | - | - |
| 1778041071 | 17.78° C | 98% | 914.8 hPa | 0 mm | 2.68 m/s, 56° | - | - |
| 1778040769 | 17.78° C | 98% | 914.8 hPa | 0 mm | 2.24 m/s, 101° | - | - |
| 1778040711 | 17.78° C | 98% | 914.8 hPa | 0 mm | 1.34 m/s, 97° | - | - |
| 1778040469 | 17.78° C | 98% | 914.9 hPa | 0 mm | 0.89 m/s, 87° | - | - |
| 1778040351 | 17.78° C | 98% | 914.9 hPa | 0 mm | 1.34 m/s, 101° | - | - |
| 1778040169 | 17.78° C | 98% | 914.9 hPa | 0 mm | 0.89 m/s, 71° | - | - |
| 1778039631 | 17.78° C | 98% | 915 hPa | 0 mm | 0.45 m/s, 109° | - | - |
| 1778039569 | 17.78° C | 98% | 915 hPa | 0 mm | 0 m/s | - | - |
| 1778039271 | 17.78° C | 98% | 914.9 hPa | 0 mm | 0 m/s | - | - |
| 1778039269 | 17.78° C | 98% | 914.9 hPa | 0 mm | 0 m/s | - | - |
| 1778038969 | 17.78° C | 98% | 915 hPa | 0 mm | 0 m/s | - | - |
| 1778038670 | 17.78° C | 98% | 914.9 hPa | 0 mm | 0.89 m/s, 103° | - | - |
| 1778038369 | 17.78° C | 98% | 915 hPa | 0 mm | 1.79 m/s, 103° | - | - |
* Rain latest hour (hover to see other rain measurements)
** Current wind speed in m/s (hover to see current wind gust speed)